Beach, ND

11:46 PM MST on January 18, 2017 (GMT -0700)
Beach

Weather History for K20U - August, 2014

Change the Weather History Date:

Wednesday, August 20, 2014

  Actual Average (KGDV) Record (KGDV)
Temperature  
Mean Temperature 66 °F -  
Max Temperature 75 °F 83 °F 93 °F (2008)
Min Temperature 57 °F 55 °F 44 °F (1997)
Cooling Degree Days 1    
Growing Degree Days 16 (Base 50)    
Moisture  
Dew Point 60 °F    
Average Humidity 80    
Maximum Humidity 100    
Minimum Humidity 53    
Precipitation  
Precipitation 0.00 in - - ()
Sea Level Pressure  
Sea Level Pressure 29.74 in    
Wind  
Wind Speed 7 mph (SW)    
Max Wind Speed 16 mph    
Max Gust Speed 20 mph    
Visibility 10 miles    
Events Rain , Thunderstorm    
Averages and records for this station are not official NWS values.
T = Trace of Precipitation, MM = Missing Value Source: NWS Daily Summary

Daily Weather History Graph

Daily Weather History Graph

Search for Another Location

Airport or City:

Trip Planner

Search our weather history database for the weather conditions in past years. The results will help you decide how hot, cold, wet, or windy it might be!

Date:

Astronomy

Aug. 20, 2014 Rise Set
Actual Time 5:59 AM MDT 7:57 PM MDT
Civil Twilight 5:27 AM MDT 8:30 PM MDT
Nautical Twilight 4:46 AM MDT 9:10 PM MDT
Astronomical Twilight 4:02 AM MDT 9:54 PM MDT
Moon 1:34 AM MDT (8/20) 4:51 PM MDT (8/20)
Length of Visible Light 15h 03m
Length of Day
13h 57m
Waning Crescent, 20% of the Moon is Illuminated
Aug 20
Waning Crescent
Aug 25
New
Sep 2
First Quarter
Sep 8
Full
Sep 15
Last Quarter

Hourly Weather History & Observations

Time (MDT) Temp. Dew Point Humidity Pressure Visibility Wind Dir Wind Speed Gust Speed Precip Events Conditions
12:15 AM 66.2 °F 59.0 °F 78% 29.69 in 10.0 mi SE 9.2 mph - N/A   Unknown
12:35 AM 66.2 °F 59.0 °F 78% 29.68 in 10.0 mi SSE 12.7 mph - N/A   Unknown
12:55 AM 66.2 °F 59.0 °F 78% 29.68 in 10.0 mi SSE 12.7 mph - N/A   Unknown
1:15 AM 66.2 °F 59.0 °F 78% 29.67 in 10.0 mi SSE 10.4 mph - N/A   Unknown
1:35 AM 64.4 °F 59.0 °F 83% 29.67 in 10.0 mi SE 9.2 mph - N/A   Unknown
1:55 AM 62.6 °F 60.8 °F 94% 29.67 in 10.0 mi SE 9.2 mph - N/A   Unknown
2:15 AM 62.6 °F 60.8 °F 94% 29.67 in 10.0 mi SE 10.4 mph - N/A   Unknown
2:35 AM 62.6 °F 60.8 °F 94% 29.67 in 10.0 mi SSE 6.9 mph - N/A   Unknown
2:55 AM 64.4 °F 60.8 °F 88% 29.67 in 10.0 mi SSE 6.9 mph - N/A   Unknown
3:15 AM 64.4 °F 60.8 °F 88% 29.67 in 10.0 mi SE 6.9 mph - N/A   Unknown
3:35 AM 64.4 °F 62.6 °F 94% 29.67 in 10.0 mi Calm Calm - N/A   Unknown
3:55 AM 66.2 °F 62.6 °F 88% 29.67 in 10.0 mi SSW 9.2 mph - N/A   Unknown
4:15 AM 66.2 °F 62.6 °F 88% 29.67 in 10.0 mi SSW 6.9 mph - N/A   Unknown
4:35 AM 64.4 °F 62.6 °F 94% 29.66 in 10.0 mi SSE 5.8 mph - N/A   Unknown
4:55 AM 62.6 °F 62.6 °F 100% 29.66 in 10.0 mi East 5.8 mph - N/A   Unknown
5:15 AM 64.4 °F 62.6 °F 94% 29.66 in 10.0 mi ESE 6.9 mph - N/A   Unknown
5:35 AM 64.4 °F 62.6 °F 94% 29.67 in 10.0 mi SW 4.6 mph - N/A   Unknown
5:55 AM 64.4 °F 62.6 °F 94% 29.67 in 10.0 mi SE 4.6 mph - N/A   Unknown
6:15 AM 66.2 °F 64.4 °F 94% 29.68 in 10.0 mi SSE 8.1 mph - N/A Thunderstorm Unknown
6:35 AM 66.2 °F 64.4 °F 94% 29.69 in 10.0 mi Calm Calm - N/A   Unknown
6:55 AM 64.4 °F 64.4 °F 100% 29.69 in 10.0 mi SE 5.8 mph - N/A   Unknown
7:15 AM 69.8 °F 60.8 °F 73% 29.68 in 10.0 mi South 6.9 mph 17.3 mph N/A   Unknown
7:35 AM 71.6 °F 59.0 °F 64% 29.67 in 10.0 mi WSW 16.1 mph 19.6 mph N/A   Unknown
7:55 AM 73.4 °F 55.4 °F 53% 29.67 in 10.0 mi Calm Calm - N/A   Unknown
8:15 AM 73.4 °F 57.2 °F 57% 29.67 in 10.0 mi SSW 10.4 mph - N/A   Unknown
8:35 AM 73.4 °F 57.2 °F 57% 29.67 in 10.0 mi West 8.1 mph - N/A   Unknown
8:55 AM 71.6 °F 59.0 °F 64% 29.67 in 10.0 mi Calm Calm - N/A   Unknown
9:15 AM 73.4 °F 55.4 °F 53% 29.68 in 10.0 mi WSW 9.2 mph - N/A   Unknown
9:35 AM 71.6 °F 57.2 °F 60% 29.71 in 10.0 mi ESE 6.9 mph - N/A   Unknown
9:55 AM 71.6 °F 59.0 °F 64% 29.72 in 10.0 mi SE 3.5 mph - N/A   Unknown
10:15 AM 71.6 °F 60.8 °F 69% 29.73 in 10.0 mi NE 6.9 mph - N/A   Unknown
10:35 AM 73.4 °F 60.8 °F 65% 29.72 in 10.0 mi East 4.6 mph - N/A   Unknown
10:55 AM 75.2 °F 59.0 °F 57% 29.73 in 10.0 mi SSE 5.8 mph - N/A   Unknown
11:15 AM 73.4 °F 64.4 °F 73% 29.74 in 10.0 mi Calm Calm - N/A   Unknown
11:35 AM 73.4 °F 64.4 °F 73% 29.75 in 10.0 mi SE 3.5 mph - N/A   Unknown
11:55 AM 75.2 °F 62.6 °F 65% 29.75 in 10.0 mi Calm Calm - N/A   Unknown
12:15 PM 75.2 °F 57.2 °F 53% 29.76 in 10.0 mi NW 8.1 mph - N/A   Unknown
12:35 PM 75.2 °F 57.2 °F 53% 29.76 in 10.0 mi NW 9.2 mph - N/A   Unknown
12:55 PM 73.4 °F 57.2 °F 57% 29.77 in 10.0 mi NNW 5.8 mph - N/A Rain Light Rain
1:15 PM 71.6 °F 62.6 °F 73% 29.77 in 10.0 mi WNW 5.8 mph - N/A Rain Light Rain
1:35 PM 71.6 °F 60.8 °F 69% 29.78 in 10.0 mi NW 5.8 mph - N/A   Unknown
1:55 PM 73.4 °F 59.0 °F 61% 29.78 in 10.0 mi NW 4.6 mph - N/A   Unknown
2:15 PM 73.4 °F 57.2 °F 57% 29.79 in 10.0 mi NW 8.1 mph - N/A   Unknown
2:35 PM 73.4 °F 57.2 °F 57% 29.80 in 10.0 mi NW 13.8 mph - N/A   Unknown
2:55 PM 73.4 °F 55.4 °F 53% 29.79 in 10.0 mi NW 16.1 mph - N/A   Unknown
3:15 PM 71.6 °F 57.2 °F 60% 29.79 in 10.0 mi NNW 13.8 mph - N/A Thunderstorm Unknown
3:35 PM 68.0 °F 59.0 °F 73% 29.79 in 10.0 mi NNW 15.0 mph - N/A   Unknown
3:55 PM 66.2 °F 64.4 °F 94% 29.78 in 9.0 mi North 10.4 mph - N/A Rain Light Rain
4:15 PM 68.0 °F 62.6 °F 83% 29.79 in 10.0 mi North 9.2 mph - N/A   Unknown
4:35 PM 69.8 °F 62.6 °F 78% 29.79 in 10.0 mi North 10.4 mph - N/A   Unknown
4:55 PM 71.6 °F 60.8 °F 69% 29.79 in 10.0 mi NNE 10.4 mph - N/A   Unknown
5:15 PM 71.6 °F 60.8 °F 69% 29.79 in 10.0 mi North 10.4 mph - N/A   Unknown
5:35 PM 71.6 °F 60.8 °F 69% 29.80 in 10.0 mi North 9.2 mph - N/A   Unknown
5:55 PM 69.8 °F 62.6 °F 78% 29.80 in 10.0 mi NNE 8.1 mph - N/A   Unknown
6:15 PM 69.8 °F 60.8 °F 73% 29.80 in 10.0 mi NE 5.8 mph - N/A   Unknown
6:35 PM 68.0 °F 62.6 °F 83% 29.81 in 10.0 mi Calm Calm - N/A   Unknown
6:55 PM 68.0 °F 64.4 °F 88% 29.80 in 10.0 mi NNE 3.5 mph - N/A   Unknown
7:15 PM 66.2 °F 64.4 °F 94% 29.80 in 10.0 mi NW 3.5 mph - N/A   Unknown
7:35 PM 64.4 °F 62.6 °F 94% 29.80 in 10.0 mi WNW 3.5 mph - N/A   Unknown
7:55 PM 64.4 °F 60.8 °F 88% 29.80 in 9.0 mi Calm Calm - N/A   Unknown
8:15 PM 62.6 °F 60.8 °F 94% 29.81 in 10.0 mi WSW 5.8 mph - N/A   Unknown
8:35 PM 62.6 °F 60.8 °F 94% 29.82 in 10.0 mi WSW 4.6 mph - N/A   Unknown
8:55 PM 62.6 °F 60.8 °F 94% 29.82 in 10.0 mi WSW 4.6 mph - N/A   Unknown
9:15 PM 60.8 °F 60.8 °F 100% 29.82 in 10.0 mi West 6.9 mph - N/A   Unknown
9:35 PM 59.0 °F 59.0 °F 100% 29.82 in 10.0 mi SSW 3.5 mph - N/A   Unknown
9:55 PM 60.8 °F 59.0 °F 94% 29.82 in 10.0 mi Calm Calm - N/A   Unknown
10:15 PM 60.8 °F 60.8 °F 100% 29.82 in 10.0 mi WSW 5.8 mph - N/A   Unknown
10:35 PM 57.2 °F 57.2 °F 100% 29.82 in 10.0 mi Calm Calm - N/A   Unknown
10:55 PM 57.2 °F 57.2 °F 100% 29.82 in 10.0 mi West 3.5 mph - N/A   Unknown
11:15 PM 57.2 °F 57.2 °F 100% 29.83 in 10.0 mi Calm Calm - N/A   Unknown
11:35 PM 57.2 °F 57.2 °F 100% 29.84 in 10.0 mi Calm Calm - N/A   Unknown
11:55 PM 57.2 °F 57.2 °F 100% 29.85 in 10.0 mi Calm Calm - N/A   Unknown